Time,TemperatureF,DewpointF,PressureIn,WindDirection,WindDirectionDegrees,WindSpeedMPH,WindSpeedGustMPH,Humidity,HourlyPrecipIn,Conditions,Clouds,dailyrainin,SoftwareType,DateUTC
2013-01-12 00:00:00,49.4,48.6,29.95,North,360,1.0,3.5,97,0.00,BKN,,0.50,WeatherDisplay:10.37,2013-01-12 05:00:00,
2013-01-12 00:01:00,49.4,48.6,29.95,North,360,0.2,4.0,97,0.00,RA,,0.00,WeatherDisplay:10.37,2013-01-12 05:01:00,
2013-01-12 00:02:00,49.4,48.6,29.95,North,360,1.6,5.8,97,0.00,RA,,0.00,WeatherDisplay:10.37,2013-01-12 05:02:00,
2013-01-12 00:07:00,49.4,48.3,29.95,North,360,3.6,6.9,96,0.00,RA,,0.00,WeatherDisplay:10.37,2013-01-12 05:07:00,
2013-01-12 00:12:00,49.4,48.3,29.95,North,360,3.8,4.6,96,0.00,BKN,,0.00,WeatherDisplay:10.37,2013-01-12 05:12:00,
2013-01-12 00:17:00,49.2,48.1,29.94,North,360,1.1,3.5,96,0.00,BKN,,0.00,WeatherDisplay:10.37,2013-01-12 05:17:00,
2013-01-12 00:22:00,49.2,48.1,29.94,North,360,2.6,3.5,96,0.00,BKN,,0.00,WeatherDisplay:10.37,2013-01-12 05:22:00,
2013-01-12 00:27:00,49.2,48.1,29.94,North,360,5.5,8.1,96,0.00,BKN,,0.00,WeatherDisplay:10.37,2013-01-12 05:27:00,
2013-01-12 00:32:00,49.3,48.5,29.94,North,360,3.1,4.6,97,0.00,BKN,,0.00,WeatherDisplay:10.37,2013-01-12 05:32:00,
2013-01-12 00:37:00,49.4,48.6,29.94,North,360,3.4,4.6,97,0.00,BKN,,0.00,WeatherDisplay:10.37,2013-01-12 05:37:00,
2013-01-12 00:42:00,49.5,48.7,29.95,North,360,3.0,6.9,97,0.00,BKN,,0.00,WeatherDisplay:10.37,2013-01-12 05:42:00,
2013-01-12 00:47:00,49.4,48.6,29.94,North,360,1.8,3.5,97,0.00,BKN,,0.00,WeatherDisplay:10.37,2013-01-12 05:47:00,
2013-01-12 00:52:00,49.4,48.6,29.94,North,360,2.9,4.6,97,0.00,BKN,,0.00,WeatherDisplay:10.37,2013-01-12 05:52:00,
2013-01-12 00:57:00,49.4,48.6,29.95,North,360,6.5,9.2,97,0.00,BKN,,0.00,WeatherDisplay:10.37,2013-01-12 05:57:00,
2013-01-12 01:02:00,49.4,48.6,29.95,North,360,4.6,9.2,97,0.00,OVC,,0.00,WeatherDisplay:10.37,2013-01-12 06:02:00,
2013-01-12 01:07:00,49.4,48.6,29.95,North,360,4.8,8.1,97,0.00,OVC,,0.00,WeatherDisplay:10.37,2013-01-12 06:07:00,
2013-01-12 01:12:00,49.3,48.5,29.95,North,360,4.7,5.8,97,0.00,OVC,,0.00,WeatherDisplay:10.37,2013-01-12 06:12:00,
2013-01-12 01:17:00,49.3,48.5,29.95,North,360,5.3,6.9,97,0.00,OVC,,0.00,WeatherDisplay:10.37,2013-01-12 06:17:00,
2013-01-12 01:22:00,49.2,48.4,29.95,North,360,5.0,5.0,97,0.00,OVC,,0.00,WeatherDisplay:10.37,2013-01-12 06:22:00,
2013-01-12 01:27:00,49.1,48.3,29.95,North,360,4.5,6.9,97,0.00,OVC,,0.00,WeatherDisplay:10.37,2013-01-12 06:27:00,
2013-01-12 01:32:00,49.0,48.2,29.95,North,360,5.0,6.9,97,0.00,OVC,,0.00,WeatherDisplay:10.37,2013-01-12 06:32:00,
2013-01-12 01:37:00,48.9,48.1,29.95,North,360,5.9,8.1,97,0.00,OVC,,0.00,WeatherDisplay:10.37,2013-01-12 06:37:00,
2013-01-12 01:42:00,48.9,48.4,29.96,North,360,4.4,11.5,98,0.00,OVC,,0.00,WeatherDisplay:10.37,2013-01-12 06:42:00,
2013-01-12 01:47:00,48.7,48.2,29.96,North,360,2.1,6.0,98,0.00,OVC,,0.00,WeatherDisplay:10.37,2013-01-12 06:47:00,
2013-01-12 01:52:00,48.7,48.2,29.96,North,360,2.8,5.8,98,0.00,OVC,,0.00,WeatherDisplay:10.37,2013-01-12 06:52:00,
2013-01-12 01:57:00,48.6,48.1,29.96,North,360,3.1,6.0,98,0.00,OVC,,0.00,WeatherDisplay:10.37,2013-01-12 06:57:00,
2013-01-12 02:02:00,48.5,48.0,29.96,North,360,4.9,6.9,98,0.00,CLR,,0.00,WeatherDisplay:10.37,2013-01-12 07:02:00,
2013-01-12 02:07:00,48.5,48.0,29.96,North,360,3.1,3.5,98,0.00,CLR,,0.00,WeatherDisplay:10.37,2013-01-12 07:07:00,
2013-01-12 02:12:00,48.4,47.9,29.97,North,360,4.7,8.1,98,0.00,CLR,,0.00,WeatherDisplay:10.37,2013-01-12 07:12:00,
2013-01-12 02:17:00,48.3,47.8,29.96,North,360,3.7,5.8,98,0.00,CLR,,0.00,WeatherDisplay:10.37,2013-01-12 07:17:00,
2013-01-12 02:22:00,48.3,47.8,29.96,North,360,2.1,3.5,98,0.00,CLR,,0.00,WeatherDisplay:10.37,2013-01-12 07:22:00,
2013-01-12 02:27:00,48.2,47.7,29.97,North,360,2.0,3.5,98,0.00,CLR,,0.00,WeatherDisplay:10.37,2013-01-12 07:27:00,
2013-01-12 02:32:00,48.1,47.6,29.97,North,360,1.4,3.5,98,0.00,CLR,,0.00,WeatherDisplay:10.37,2013-01-12 07:32:00,
2013-01-12 02:37:00,47.9,47.4,29.97,North,360,2.3,3.5,98,0.00,CLR,,0.00,WeatherDisplay:10.37,2013-01-12 07:37:00,
2013-01-12 02:42:00,47.8,47.3,29.98,North,360,2.6,3.5,98,0.00,CLR,,0.00,WeatherDisplay:10.37,2013-01-12 07:42:00,
2013-01-12 02:47:00,47.8,47.5,29.98,North,360,2.9,4.6,99,0.00,CLR,,0.00,WeatherDisplay:10.37,2013-01-12 07:47:00,
2013-01-12 02:52:00,47.8,47.5,29.98,North,360,2.9,3.5,99,0.00,CLR,,0.00,WeatherDisplay:10.37,2013-01-12 07:52:00,
2013-01-12 02:57:00,47.7,47.4,29.98,North,360,2.3,3.5,99,0.00,CLR,,0.00,WeatherDisplay:10.37,2013-01-12 07:57:00,
2013-01-12 03:02:00,47.7,47.4,29.98,North,360,1.7,3.5,99,0.00,CLR,,0.00,WeatherDisplay:10.37,2013-01-12 08:02:00,
2013-01-12 03:07:00,47.8,47.5,29.98,North,360,2.7,3.5,99,0.00,CLR,,0.00,WeatherDisplay:10.37,2013-01-12 08:07:00,
2013-01-12 03:12:00,47.9,47.6,29.98,North,360,3.8,4.6,99,0.00,CLR,,0.00,WeatherDisplay:10.37,2013-01-12 08:12:00,
2013-01-12 03:17:00,48.1,47.8,29.98,North,360,3.5,4.6,99,0.00,CLR,,0.00,WeatherDisplay:10.37,2013-01-12 08:17:00,
2013-01-12 03:22:00,48.1,47.8,29.98,North,360,3.0,4.6,99,0.00,CLR,,0.00,WeatherDisplay:10.37,2013-01-12 08:22:00,
2013-01-12 03:27:00,48.2,47.9,29.98,North,360,2.8,4.6,99,0.00,CLR,,0.00,WeatherDisplay:10.37,2013-01-12 08:27:00,
2013-01-12 03:32:00,48.3,48.0,29.98,North,360,3.9,4.6,99,0.00,CLR,,0.00,WeatherDisplay:10.37,2013-01-12 08:32:00,
2013-01-12 03:37:00,48.4,48.1,29.98,North,360,4.7,8.1,99,0.00,CLR,,0.00,WeatherDisplay:10.37,2013-01-12 08:37:00,
2013-01-12 03:42:00,48.6,48.6,29.98,North,360,2.5,4.6,100,0.00,CLR,,0.00,WeatherDisplay:10.37,2013-01-12 08:42:00,
2013-01-12 03:47:00,48.7,48.7,29.98,North,360,2.7,5.8,100,0.00,CLR,,0.00,WeatherDisplay:10.37,2013-01-12 08:47:00,
2013-01-12 03:52:00,48.8,48.8,29.97,North,360,4.3,9.2,100,0.00,CLR,,0.00,WeatherDisplay:10.37,2013-01-12 08:52:00,
2013-01-12 03:57:00,49.0,49.0,29.98,North,360,4.5,9.2,100,0.00,CLR,,0.00,WeatherDisplay:10.37,2013-01-12 08:57:00,
2013-01-12 04:02:00,49.1,49.1,29.97,North,360,4.7,6.9,100,0.00,CLR,,0.00,WeatherDisplay:10.37,2013-01-12 09:02:00,
2013-01-12 04:07:00,49.2,49.2,29.98,North,360,3.2,5.8,100,0.00,CLR,,0.00,WeatherDisplay:10.37,2013-01-12 09:07:00,
2013-01-12 04:13:00,49.2,49.2,29.98,North,360,4.2,6.0,100,0.00,CLR,,0.00,WeatherDisplay:10.37,2013-01-12 09:13:00,
2013-01-12 04:18:00,49.3,49.3,29.97,North,360,3.3,5.8,100,0.00,CLR,,0.00,WeatherDisplay:10.37,2013-01-12 09:18:00,
2013-01-12 04:23:00,49.4,49.4,29.97,North,360,4.3,6.9,100,0.00,CLR,,0.00,WeatherDisplay:10.37,2013-01-12 09:23:00,
2013-01-12 04:28:00,49.5,49.5,29.97,North,360,6.3,8.1,100,0.00,CLR,,0.00,WeatherDisplay:10.37,2013-01-12 09:28:00,
2013-01-12 04:33:00,49.6,49.6,29.98,North,360,4.3,6.9,100,0.00,CLR,,0.00,WeatherDisplay:10.37,2013-01-12 09:33:00,
2013-01-12 04:38:00,49.6,49.6,29.97,North,360,4.4,5.8,100,0.00,CLR,,0.00,WeatherDisplay:10.37,2013-01-12 09:38:00,
2013-01-12 04:43:00,49.6,49.6,29.97,North,360,4.6,8.1,100,0.00,CLR,,0.00,WeatherDisplay:10.37,2013-01-12 09:43:00,
2013-01-12 04:48:00,49.7,49.7,29.97,North,360,5.3,11.5,100,0.00,CLR,,0.00,WeatherDisplay:10.37,2013-01-12 09:48:00,
2013-01-12 04:53:00,49.8,49.8,29.97,North,360,4.5,6.9,100,0.00,CLR,,0.00,WeatherDisplay:10.37,2013-01-12 09:53:00,
2013-01-12 04:58:00,49.9,49.9,29.97,North,360,2.3,5.8,100,0.00,CLR,,0.00,WeatherDisplay:10.37,2013-01-12 09:58:00,
2013-01-12 05:03:00,50.0,50.0,29.97,North,360,6.7,8.1,100,0.00,CLR,,0.00,WeatherDisplay:10.37,2013-01-12 10:03:00,
2013-01-12 05:08:00,50.2,50.2,29.97,North,360,4.3,6.9,100,0.00,CLR,,0.00,WeatherDisplay:10.37,2013-01-12 10:08:00,
2013-01-12 05:13:00,50.3,50.3,29.97,North,360,4.0,6.0,100,0.00,CLR,,0.00,WeatherDisplay:10.37,2013-01-12 10:13:00,
2013-01-12 05:18:00,50.4,50.4,29.97,North,360,3.5,6.0,100,0.00,CLR,,0.00,WeatherDisplay:10.37,2013-01-12 10:18:00,
2013-01-12 05:23:00,50.5,50.5,29.97,North,360,5.0,8.1,100,0.00,CLR,,0.00,WeatherDisplay:10.37,2013-01-12 10:23:00,
2013-01-12 05:28:00,50.6,50.6,29.97,North,360,3.0,5.8,100,0.00,CLR,,0.00,WeatherDisplay:10.37,2013-01-12 10:28:00,
2013-01-12 05:33:00,50.8,50.8,29.98,North,360,4.8,5.8,100,0.00,CLR,,0.00,WeatherDisplay:10.37,2013-01-12 10:33:00,
2013-01-12 05:38:00,50.9,50.9,29.98,North,360,2.2,5.8,100,0.00,CLR,,0.00,WeatherDisplay:10.37,2013-01-12 10:38:00,
2013-01-12 05:43:00,51.1,51.1,29.98,North,360,4.9,7.0,100,0.00,CLR,,0.00,WeatherDisplay:10.37,2013-01-12 10:43:00,
2013-01-12 05:48:00,51.3,51.3,29.98,North,360,3.2,5.8,100,0.00,CLR,,0.00,WeatherDisplay:10.37,2013-01-12 10:48:00,
2013-01-12 05:53:00,51.5,51.5,29.98,North,360,6.6,11.5,100,0.00,CLR,,0.00,WeatherDisplay:10.37,2013-01-12 10:53:00,
2013-01-12 05:58:00,51.6,51.6,29.98,North,360,5.3,6.9,100,0.00,CLR,,0.00,WeatherDisplay:10.37,2013-01-12 10:58:00,
2013-01-12 06:03:00,51.8,51.8,29.98,North,360,5.3,8.0,100,0.00,CLR,,0.00,WeatherDisplay:10.37,2013-01-12 11:03:00,
2013-01-12 06:08:00,52.0,52.0,29.98,North,360,5.6,11.5,100,0.00,CLR,,0.00,WeatherDisplay:10.37,2013-01-12 11:08:00,
2013-01-12 06:13:00,52.1,52.1,29.98,North,360,6.1,8.1,100,0.00,CLR,,0.00,WeatherDisplay:10.37,2013-01-12 11:13:00,
2013-01-12 06:18:00,52.2,52.2,29.98,North,360,4.7,5.0,100,0.00,CLR,,0.00,WeatherDisplay:10.37,2013-01-12 11:18:00,
2013-01-12 06:23:00,52.3,52.3,29.98,North,360,5.6,7.0,100,0.00,CLR,,0.00,WeatherDisplay:10.37,2013-01-12 11:23:00,
2013-01-12 06:28:00,52.4,52.4,29.99,North,360,5.0,9.2,100,0.00,CLR,,0.00,WeatherDisplay:10.37,2013-01-12 11:28:00,
2013-01-12 06:33:00,52.6,52.6,29.99,North,360,3.4,4.6,100,0.00,CLR,,0.00,WeatherDisplay:10.37,2013-01-12 11:33:00,
2013-01-12 06:38:00,52.7,52.7,29.99,SSW,212,3.9,5.0,100,0.00,CLR,,0.00,WeatherDisplay:10.37,2013-01-12 11:38:00,
2013-01-12 06:43:00,52.6,52.6,29.99,South,179,3.4,5.8,100,0.00,CLR,,0.00,WeatherDisplay:10.37,2013-01-12 11:43:00,
2013-01-12 06:48:00,52.7,52.7,29.99,South,178,3.7,8.1,100,0.00,CLR,,0.00,WeatherDisplay:10.37,2013-01-12 11:48:00,
2013-01-12 06:53:00,52.6,52.6,29.99,South,190,2.5,5.8,100,0.00,CLR,,0.00,WeatherDisplay:10.37,2013-01-12 11:53:00,
2013-01-12 06:58:00,52.6,52.6,29.99,South,188,4.5,8.1,100,0.00,CLR,,0.00,WeatherDisplay:10.37,2013-01-12 11:58:00,
2013-01-12 07:03:00,52.7,52.7,29.99,South,186,4.2,5.8,100,0.00,OVC,,0.00,WeatherDisplay:10.37,2013-01-12 12:03:00,
2013-01-12 07:08:00,52.7,52.7,29.99,South,188,3.0,4.6,100,0.00,OVC,,0.00,WeatherDisplay:10.37,2013-01-12 12:08:00,
2013-01-12 07:13:00,52.7,52.7,29.99,SSW,198,4.6,6.9,100,0.00,OVC,,0.00,WeatherDisplay:10.37,2013-01-12 12:13:00,
2013-01-12 07:18:00,52.7,52.7,29.99,South,178,3.9,5.8,100,0.00,OVC,,0.00,WeatherDisplay:10.37,2013-01-12 12:18:00,
2013-01-12 07:23:00,52.6,52.6,29.99,South,173,4.4,6.9,100,0.00,OVC,,0.00,WeatherDisplay:10.37,2013-01-12 12:23:00,
2013-01-12 07:28:00,52.6,52.6,29.99,SSE,163,7.0,10.4,100,0.00,OVC,,0.00,WeatherDisplay:10.37,2013-01-12 12:28:00,
2013-01-12 07:33:00,52.7,52.7,29.99,SSW,209,4.7,8.0,100,0.00,OVC,,0.00,WeatherDisplay:10.37,2013-01-12 12:33:00,
2013-01-12 07:38:00,52.7,52.7,29.99,North,360,3.7,5.8,100,0.00,OVC,,0.00,WeatherDisplay:10.37,2013-01-12 12:38:00,
2013-01-12 07:43:00,52.7,52.7,29.99,SSE,168,4.5,8.1,100,0.00,OVC,,0.00,WeatherDisplay:10.37,2013-01-12 12:43:00,
2013-01-12 07:48:00,52.6,52.6,29.99,North,360,4.0,9.2,100,0.00,OVC,,0.00,WeatherDisplay:10.37,2013-01-12 12:48:00,
2013-01-12 07:53:00,52.6,52.6,29.99,South,190,4.4,9.2,100,0.00,OVC,,0.00,WeatherDisplay:10.37,2013-01-12 12:53:00,
2013-01-12 07:58:00,52.6,52.6,29.99,South,171,4.1,5.8,100,0.00,OVC,,0.00,WeatherDisplay:10.37,2013-01-12 12:58:00,
2013-01-12 08:03:00,52.6,52.6,29.99,SSW,202,3.4,6.9,100,0.00,BKN,,0.00,WeatherDisplay:10.37,2013-01-12 13:03:00,
2013-01-12 08:08:00,52.5,52.5,29.99,North,360,4.3,8.1,100,0.00,BKN,,0.00,WeatherDisplay:10.37,2013-01-12 13:08:00,
2013-01-12 08:13:00,52.5,52.5,30.00,North,360,5.6,8.1,100,0.00,BKN,,0.00,WeatherDisplay:10.37,2013-01-12 13:13:00,
2013-01-12 08:18:00,52.5,52.5,30.00,South,185,4.1,6.9,100,0.00,BKN,,0.00,WeatherDisplay:10.37,2013-01-12 13:18:00,
2013-01-12 08:23:00,52.6,52.6,30.00,SSW,209,2.8,4.6,100,0.00,BKN,,0.00,WeatherDisplay:10.37,2013-01-12 13:23:00,
2013-01-12 08:28:00,52.8,52.8,30.00,SSW,200,5.0,8.1,100,0.00,BKN,,0.00,WeatherDisplay:10.37,2013-01-12 13:28:00,
2013-01-12 08:33:00,52.9,52.9,30.00,North,360,3.6,5.8,100,0.00,BKN,,0.00,WeatherDisplay:10.37,2013-01-12 13:33:00,
2013-01-12 08:38:00,53.0,53.0,30.00,North,360,6.1,8.0,100,0.00,BKN,,0.00,WeatherDisplay:10.37,2013-01-12 13:38:00,
2013-01-12 08:43:00,53.1,53.1,30.00,North,360,3.9,6.0,100,0.00,BKN,,0.00,WeatherDisplay:10.37,2013-01-12 13:43:00,
2013-01-12 08:48:00,53.2,53.2,30.00,SSW,207,4.1,8.1,100,0.00,BKN,,0.00,WeatherDisplay:10.37,2013-01-12 13:48:00,
2013-01-12 08:53:00,53.2,53.2,30.00,SW,214,5.2,6.9,100,0.00,BKN,,0.00,WeatherDisplay:10.37,2013-01-12 13:53:00,
2013-01-12 08:58:00,53.3,53.3,30.00,South,178,4.9,6.9,100,0.00,BKN,,0.00,WeatherDisplay:10.37,2013-01-12 13:58:00,
2013-01-12 09:03:00,53.4,53.4,30.00,SSW,207,3.9,5.8,100,0.00,BKN,,0.00,WeatherDisplay:10.37,2013-01-12 14:03:00,
2013-01-12 09:08:00,53.5,53.5,30.00,North,360,4.1,5.8,100,0.00,BKN,,0.00,WeatherDisplay:10.37,2013-01-12 14:08:00,
2013-01-12 09:13:00,53.6,53.6,30.00,North,360,5.1,6.9,100,0.00,BKN,,0.00,WeatherDisplay:10.37,2013-01-12 14:13:00,
2013-01-12 09:18:00,53.6,53.3,30.00,North,360,4.5,6.9,99,0.00,BKN,,0.00,WeatherDisplay:10.37,2013-01-12 14:18:00,
2013-01-12 09:23:00,53.6,53.3,30.01,North,360,3.5,4.6,99,0.00,BKN,,0.00,WeatherDisplay:10.37,2013-01-12 14:23:00,
2013-01-12 09:28:00,53.7,53.4,30.00,North,360,4.3,10.4,99,0.00,BKN,,0.00,WeatherDisplay:10.37,2013-01-12 14:28:00,
2013-01-12 09:33:00,53.8,53.5,30.01,North,360,3.6,5.8,99,0.00,BKN,,0.00,WeatherDisplay:10.37,2013-01-12 14:33:00,
2013-01-12 09:38:00,53.8,53.5,30.01,North,360,4.8,9.2,99,0.00,BKN,,0.00,WeatherDisplay:10.37,2013-01-12 14:38:00,
2013-01-12 09:43:00,53.8,53.5,30.01,North,360,2.7,6.0,99,0.00,BKN,,0.00,WeatherDisplay:10.37,2013-01-12 14:43:00,
2013-01-12 09:48:00,53.8,53.5,30.01,North,360,6.0,10.4,99,0.00,BKN,,0.00,WeatherDisplay:10.37,2013-01-12 14:48:00,
2013-01-12 09:53:00,53.9,53.6,30.01,North,360,4.1,5.8,99,0.00,BKN,,0.00,WeatherDisplay:10.37,2013-01-12 14:53:00,
2013-01-12 09:58:00,53.9,53.3,30.01,North,360,4.7,4.7,98,0.00,BKN,,0.00,WeatherDisplay:10.37,2013-01-12 14:58:00,
2013-01-12 10:03:00,54.0,53.4,30.01,North,360,4.7,5.8,98,0.00,BKN,,0.00,WeatherDisplay:10.37,2013-01-12 15:03:00,
2013-01-12 10:08:00,54.1,53.5,30.01,SW,224,5.6,9.2,98,0.00,BKN,,0.00,WeatherDisplay:10.37,2013-01-12 15:08:00,
2013-01-12 10:13:00,54.4,53.8,30.01,SW,229,3.9,6.9,98,0.00,BKN,,0.00,WeatherDisplay:10.37,2013-01-12 15:13:00,
2013-01-12 10:18:00,54.7,54.1,30.01,SSW,213,3.1,4.6,98,0.00,BKN,,0.00,WeatherDisplay:10.37,2013-01-12 15:18:00,
2013-01-12 10:23:00,55.1,54.5,30.01,SSW,207,4.3,6.9,98,0.00,BKN,,0.00,WeatherDisplay:10.37,2013-01-12 15:23:00,
2013-01-12 10:28:00,55.4,54.6,30.02,SSW,193,3.8,10.0,97,0.00,BKN,,0.00,WeatherDisplay:10.37,2013-01-12 15:28:00,
2013-01-12 10:33:00,55.7,54.9,30.01,SSW,211,4.7,6.0,97,0.00,BKN,,0.00,WeatherDisplay:10.37,2013-01-12 15:33:00,
2013-01-12 10:38:00,55.9,54.8,30.02,West,259,2.3,6.9,96,0.00,BKN,,0.00,WeatherDisplay:10.37,2013-01-12 15:38:00,
2013-01-12 10:43:00,56.2,55.1,30.01,SW,226,4.6,6.9,96,0.00,BKN,,0.00,WeatherDisplay:10.37,2013-01-12 15:43:00,
2013-01-12 10:48:00,56.5,55.1,30.02,SSW,207,3.4,6.0,95,0.00,BKN,,0.00,WeatherDisplay:10.37,2013-01-12 15:48:00,
2013-01-12 10:53:00,56.8,55.1,30.02,SW,224,4.4,5.8,94,0.00,BKN,,0.00,WeatherDisplay:10.37,2013-01-12 15:53:00,
2013-01-12 10:58:00,57.1,55.4,30.02,SW,235,3.8,5.0,94,0.00,BKN,,0.00,WeatherDisplay:10.37,2013-01-12 15:58:00,
2013-01-12 11:03:00,57.4,55.4,30.02,SSW,198,2.9,4.6,93,0.00,BKN,,0.00,WeatherDisplay:10.37,2013-01-12 16:03:00,
2013-01-12 11:08:00,57.5,55.2,30.01,SW,215,5.9,10.4,92,0.00,BKN,,0.00,WeatherDisplay:10.37,2013-01-12 16:08:00,
2013-01-12 11:13:00,57.7,55.4,30.01,SW,224,3.9,11.5,92,0.00,BKN,,0.00,WeatherDisplay:10.37,2013-01-12 16:13:00,
2013-01-12 11:18:00,57.9,55.3,30.00,SW,227,6.1,8.1,91,0.00,BKN,,0.00,WeatherDisplay:10.37,2013-01-12 16:18:00,
2013-01-12 11:23:00,58.0,55.4,30.00,SSW,213,4.1,8.1,91,0.00,BKN,,0.00,WeatherDisplay:10.37,2013-01-12 16:23:00,
2013-01-12 11:28:00,58.2,55.3,30.00,SW,221,2.2,3.5,90,0.00,BKN,,0.00,WeatherDisplay:10.37,2013-01-12 16:28:00,
2013-01-12 11:33:00,58.4,55.5,30.00,WSW,241,3.4,5.8,90,0.00,BKN,,0.00,WeatherDisplay:10.37,2013-01-12 16:33:00,
2013-01-12 11:38:00,58.6,55.4,30.00,WSW,252,5.5,6.9,89,0.00,BKN,,0.00,WeatherDisplay:10.37,2013-01-12 16:38:00,
2013-01-12 11:43:00,58.9,55.7,30.00,SW,229,6.7,10.4,89,0.00,BKN,,0.00,WeatherDisplay:10.37,2013-01-12 16:43:00,
2013-01-12 11:48:00,59.2,55.6,30.00,SW,232,4.2,8.1,88,0.00,BKN,,0.00,WeatherDisplay:10.37,2013-01-12 16:48:00,
2013-01-12 11:53:00,59.6,55.7,29.99,WSW,241,6.1,10.4,87,0.00,BKN,,0.00,WeatherDisplay:10.37,2013-01-12 16:53:00,
2013-01-12 11:58:00,60.0,55.8,29.99,WSW,257,6.1,8.1,86,0.00,BKN,,0.00,WeatherDisplay:10.37,2013-01-12 16:58:00,
2013-01-12 12:03:00,60.3,55.8,29.98,SW,231,6.1,11.5,85,0.00,OVC,,0.00,WeatherDisplay:10.37,2013-01-12 17:03:00,
2013-01-12 12:08:00,60.5,56.3,29.98,North,360,3.1,10.0,86,0.00,OVC,,0.00,WeatherDisplay:10.37,2013-01-12 17:08:00,
2013-01-12 12:13:00,60.5,56.0,29.98,North,360,2.9,6.9,85,0.00,OVC,,0.00,WeatherDisplay:10.37,2013-01-12 17:13:00,
2013-01-12 12:18:00,60.5,55.6,29.98,SW,236,7.2,9.2,84,0.00,OVC,,0.00,WeatherDisplay:10.37,2013-01-12 17:18:00,
2013-01-12 12:23:00,60.5,55.3,29.98,SW,224,6.5,8.1,83,0.00,OVC,,0.00,WeatherDisplay:10.37,2013-01-12 17:23:00,
2013-01-12 12:28:00,60.3,55.1,29.98,SW,219,7.9,11.5,83,0.00,OVC,,0.00,WeatherDisplay:10.37,2013-01-12 17:28:00,
2013-01-12 12:33:00,60.1,54.9,29.98,SW,221,5.9,19.6,83,0.00,OVC,,0.00,WeatherDisplay:10.37,2013-01-12 17:33:00,
2013-01-12 12:38:00,60.0,54.8,29.98,SW,230,6.7,11.5,83,0.00,OVC,,0.00,WeatherDisplay:10.37,2013-01-12 17:38:00,
2013-01-12 12:43:00,60.0,54.8,29.98,SW,215,7.1,8.1,83,0.00,OVC,,0.00,WeatherDisplay:10.37,2013-01-12 17:43:00,
2013-01-12 12:48:00,60.0,55.2,29.98,WSW,243,2.1,4.6,84,0.00,OVC,,0.00,WeatherDisplay:10.37,2013-01-12 17:48:00,
2013-01-12 12:53:00,60.0,55.2,29.99,SW,234,3.8,11.0,84,0.00,OVC,,0.00,WeatherDisplay:10.37,2013-01-12 17:53:00,
2013-01-12 12:58:00,60.0,54.8,29.98,SSW,208,5.7,11.5,83,0.00,OVC,,0.00,WeatherDisplay:10.37,2013-01-12 17:58:00,
2013-01-12 13:03:00,60.0,54.8,29.97,WSW,241,4.1,5.8,83,0.00,OVC,,0.00,WeatherDisplay:10.37,2013-01-12 18:03:00,
2013-01-12 13:08:00,60.1,54.9,29.98,SW,219,4.8,6.9,83,0.00,OVC,,0.00,WeatherDisplay:10.37,2013-01-12 18:08:00,
2013-01-12 13:13:00,60.2,54.7,29.99,West,261,8.0,12.7,82,0.00,OVC,,0.00,WeatherDisplay:10.37,2013-01-12 18:13:00,
2013-01-12 13:18:00,60.1,54.9,29.98,West,265,4.7,6.9,83,0.00,OVC,,0.00,WeatherDisplay:10.37,2013-01-12 18:18:00,
2013-01-12 13:23:00,60.0,54.5,29.98,SW,216,9.5,12.7,82,0.00,OVC,,0.00,WeatherDisplay:10.37,2013-01-12 18:23:00,
2013-01-12 13:28:00,60.0,54.8,29.98,WSW,242,5.0,11.5,83,0.00,OVC,,0.00,WeatherDisplay:10.37,2013-01-12 18:28:00,
2013-01-12 13:33:00,60.0,54.8,29.98,SW,217,3.9,5.0,83,0.00,OVC,,0.00,WeatherDisplay:10.37,2013-01-12 18:33:00,
2013-01-12 13:38:00,60.0,54.8,29.98,SW,230,4.4,6.9,83,0.00,OVC,,0.00,WeatherDisplay:10.37,2013-01-12 18:38:00,
2013-01-12 13:43:00,60.0,54.8,29.98,SSW,212,5.7,10.4,83,0.00,OVC,,0.00,WeatherDisplay:10.37,2013-01-12 18:43:00,
2013-01-12 13:48:00,60.1,54.9,29.98,West,269,5.7,8.1,83,0.00,OVC,,0.00,WeatherDisplay:10.37,2013-01-12 18:48:00,
2013-01-12 13:53:00,60.1,54.9,29.98,SW,227,4.5,6.0,83,0.00,OVC,,0.00,WeatherDisplay:10.37,2013-01-12 18:53:00,
2013-01-12 13:58:00,60.1,54.9,29.98,SSW,207,2.9,4.6,83,0.00,OVC,,0.00,WeatherDisplay:10.37,2013-01-12 18:58:00,
2013-01-12 14:03:00,60.1,54.9,29.98,SSW,202,4.5,7.0,83,0.00,OVC,,0.00,WeatherDisplay:10.37,2013-01-12 19:03:00,
2013-01-12 14:08:00,60.1,54.6,29.98,SSW,205,5.0,6.9,82,0.00,OVC,,0.00,WeatherDisplay:10.37,2013-01-12 19:08:00,
2013-01-12 14:13:00,60.0,54.5,29.98,SW,223,2.8,5.0,82,0.00,OVC,,0.00,WeatherDisplay:10.37,2013-01-12 19:13:00,
2013-01-12 14:18:00,60.0,54.5,29.98,SSW,200,7.2,12.7,82,0.00,OVC,,0.00,WeatherDisplay:10.37,2013-01-12 19:18:00,
2013-01-12 14:23:00,60.0,54.5,29.98,SW,215,3.7,5.8,82,0.00,OVC,,0.00,WeatherDisplay:10.37,2013-01-12 19:23:00,
2013-01-12 14:28:00,60.0,54.5,29.98,SSW,200,7.5,10.4,82,0.00,OVC,,0.00,WeatherDisplay:10.37,2013-01-12 19:28:00,
2013-01-12 14:33:00,60.1,54.9,29.99,SW,222,3.7,5.8,83,0.00,OVC,,0.00,WeatherDisplay:10.37,2013-01-12 19:33:00,
2013-01-12 14:38:00,60.2,55.0,29.98,SSW,212,3.3,5.0,83,0.00,OVC,,0.00,WeatherDisplay:10.37,2013-01-12 19:38:00,
2013-01-12 14:43:00,60.2,54.7,29.98,SW,223,2.8,3.5,82,0.00,OVC,,0.00,WeatherDisplay:10.37,2013-01-12 19:43:00,
2013-01-12 14:48:00,60.2,54.7,29.98,SW,225,4.9,11.5,82,0.00,OVC,,0.00,WeatherDisplay:10.37,2013-01-12 19:48:00,
2013-01-12 14:53:00,60.2,54.7,29.98,South,178,5.0,5.8,82,0.00,OVC,,0.00,WeatherDisplay:10.37,2013-01-12 19:53:00,
2013-01-12 14:58:00,60.2,54.7,29.98,SSW,206,7.1,10.4,82,0.00,OVC,,0.00,WeatherDisplay:10.37,2013-01-12 19:58:00,
2013-01-12 15:03:00,60.2,54.7,29.99,SSW,210,2.0,3.5,82,0.00,OVC,,0.00,WeatherDisplay:10.37,2013-01-12 20:03:00,
2013-01-12 15:08:00,60.2,54.7,29.99,SW,217,5.1,8.1,82,0.00,OVC,,0.00,WeatherDisplay:10.37,2013-01-12 20:08:00,
2013-01-12 15:13:00,60.1,54.9,29.99,SW,218,3.7,5.8,83,0.00,OVC,,0.00,WeatherDisplay:10.37,2013-01-12 20:13:00,
2013-01-12 15:18:00,60.1,54.9,29.98,SW,215,4.4,6.9,83,0.00,OVC,,0.00,WeatherDisplay:10.37,2013-01-12 20:18:00,
2013-01-12 15:23:00,60.1,54.9,29.98,SSW,192,3.3,4.6,83,0.00,OVC,,0.00,WeatherDisplay:10.37,2013-01-12 20:23:00,
2013-01-12 15:28:00,60.1,54.9,29.98,SSW,202,4.3,6.0,83,0.00,OVC,,0.00,WeatherDisplay:10.37,2013-01-12 20:28:00,
2013-01-12 15:33:00,60.0,54.8,29.97,South,172,6.9,12.7,83,0.00,OVC,,0.00,WeatherDisplay:10.37,2013-01-12 20:33:00,
2013-01-12 15:38:00,60.0,54.8,29.98,South,174,3.5,8.1,83,0.00,OVC,,0.00,WeatherDisplay:10.37,2013-01-12 20:38:00,
2013-01-12 15:43:00,59.9,54.7,29.98,SSW,197,3.5,8.0,83,0.00,OVC,,0.00,WeatherDisplay:10.37,2013-01-12 20:43:00,
2013-01-12 15:48:00,59.8,54.6,29.98,SSW,193,4.6,6.0,83,0.00,OVC,,0.00,WeatherDisplay:10.37,2013-01-12 20:48:00,
2013-01-12 15:53:00,59.7,54.5,29.98,South,190,3.5,6.0,83,0.00,OVC,,0.00,WeatherDisplay:10.37,2013-01-12 20:53:00,
2013-01-12 15:58:00,59.7,54.9,29.98,South,190,5.1,6.9,84,0.00,OVC,,0.00,WeatherDisplay:10.37,2013-01-12 20:58:00,
2013-01-12 16:03:00,59.6,54.8,29.98,South,176,4.3,7.0,84,0.00,OVC,,0.00,WeatherDisplay:10.37,2013-01-12 21:03:00,
2013-01-12 16:08:00,59.6,54.8,29.98,SSW,211,4.8,10.4,84,0.00,OVC,,0.00,WeatherDisplay:10.37,2013-01-12 21:08:00,
2013-01-12 16:13:00,59.5,54.7,29.97,SSW,202,5.9,8.1,84,0.00,OVC,,0.00,WeatherDisplay:10.37,2013-01-12 21:13:00,
2013-01-12 16:18:00,59.5,54.7,29.97,South,190,6.5,11.5,84,0.00,OVC,,0.00,WeatherDisplay:10.37,2013-01-12 21:18:00,
2013-01-12 16:23:00,59.5,55.0,29.97,South,189,6.0,6.9,85,0.00,OVC,,0.00,WeatherDisplay:10.37,2013-01-12 21:23:00,
2013-01-12 16:28:00,59.5,55.0,29.98,SW,219,5.2,6.9,85,0.00,OVC,,0.00,WeatherDisplay:10.37,2013-01-12 21:28:00,
2013-01-12 16:33:00,59.4,54.9,29.98,South,182,4.1,8.1,85,0.00,OVC,,0.00,WeatherDisplay:10.37,2013-01-12 21:33:00,
2013-01-12 16:38:00,59.4,54.9,29.98,SSW,200,5.9,9.2,85,0.00,OVC,,0.00,WeatherDisplay:10.37,2013-01-12 21:38:00,
2013-01-12 16:43:00,59.3,54.8,29.98,SSW,211,2.3,6.9,85,0.00,OVC,,0.00,WeatherDisplay:10.37,2013-01-12 21:43:00,
2013-01-12 16:48:00,59.1,54.6,29.97,South,186,2.6,5.0,85,0.00,OVC,,0.00,WeatherDisplay:10.37,2013-01-12 21:48:00,
2013-01-12 16:53:00,59.0,54.8,29.98,SSW,205,4.6,8.1,86,0.00,OVC,,0.00,WeatherDisplay:10.37,2013-01-12 21:53:00,
2013-01-12 16:58:00,58.9,54.7,29.98,SSE,162,4.7,8.1,86,0.00,OVC,,0.00,WeatherDisplay:10.37,2013-01-12 21:58:00,
2013-01-12 17:03:00,58.7,54.5,29.98,South,180,2.2,4.6,86,0.00,BKN,,0.00,WeatherDisplay:10.37,2013-01-12 22:03:00,
2013-01-12 17:08:00,58.6,54.7,29.98,South,188,4.6,8.0,87,0.00,BKN,,0.00,WeatherDisplay:10.37,2013-01-12 22:08:00,
2013-01-12 17:13:00,58.4,54.5,29.98,SSW,211,4.4,6.0,87,0.00,BKN,,0.00,WeatherDisplay:10.37,2013-01-12 22:13:00,
2013-01-12 17:18:00,58.3,54.4,29.98,SSW,192,3.7,5.0,87,0.00,BKN,,0.00,WeatherDisplay:10.37,2013-01-12 22:18:00,
2013-01-12 17:23:00,58.1,54.6,29.99,SSW,194,2.6,3.5,88,0.00,BKN,,0.00,WeatherDisplay:10.37,2013-01-12 22:23:00,
2013-01-12 17:28:00,57.9,54.4,29.98,South,190,4.9,6.9,88,0.00,BKN,,0.00,WeatherDisplay:10.37,2013-01-12 22:28:00,
2013-01-12 17:33:00,57.8,54.3,29.98,SSW,193,0.0,1.1,88,0.00,BKN,,0.00,WeatherDisplay:10.37,2013-01-12 22:33:00,
2013-01-12 17:38:00,57.7,54.5,29.98,SW,215,4.3,5.8,89,0.00,BKN,,0.00,WeatherDisplay:10.37,2013-01-12 22:38:00,
2013-01-12 17:43:00,57.7,54.5,29.98,South,188,2.0,3.5,89,0.00,BKN,,0.00,WeatherDisplay:10.37,2013-01-12 22:43:00,
2013-01-12 17:48:00,57.7,54.5,29.98,South,179,2.4,4.6,89,0.00,BKN,,0.00,WeatherDisplay:10.37,2013-01-12 22:48:00,
2013-01-12 17:53:00,57.6,54.4,29.98,SSW,192,1.2,3.5,89,0.00,BKN,,0.00,WeatherDisplay:10.37,2013-01-12 22:53:00,
2013-01-12 17:58:00,57.4,54.2,29.98,South,191,1.8,2.3,89,0.00,BKN,,0.00,WeatherDisplay:10.37,2013-01-12 22:58:00,
2013-01-12 18:03:00,57.3,54.1,29.98,South,189,0.2,3.5,89,0.00,OVC,,0.00,WeatherDisplay:10.37,2013-01-12 23:03:00,
2013-01-12 18:08:00,57.2,54.0,29.98,South,179,0.9,3.5,89,0.00,OVC,,0.00,WeatherDisplay:10.37,2013-01-12 23:08:00,
2013-01-12 18:13:00,57.1,53.9,29.98,SSE,168,3.7,5.8,89,0.00,OVC,,0.00,WeatherDisplay:10.37,2013-01-12 23:13:00,
2013-01-12 18:18:00,56.9,54.0,29.97,SSE,168,3.2,5.8,90,0.00,OVC,,0.00,WeatherDisplay:10.37,2013-01-12 23:18:00,
2013-01-12 18:23:00,56.8,53.6,29.97,South,191,2.1,8.0,89,0.00,OVC,,0.00,WeatherDisplay:10.37,2013-01-12 23:23:00,
2013-01-12 18:28:00,56.7,53.8,29.96,South,173,2.8,5.8,90,0.00,OVC,,0.00,WeatherDisplay:10.37,2013-01-12 23:28:00,
2013-01-12 18:33:00,56.7,53.8,29.96,South,169,3.7,4.6,90,0.00,OVC,,0.00,WeatherDisplay:10.37,2013-01-12 23:33:00,
2013-01-12 18:38:00,56.7,54.1,29.96,SSE,166,1.2,3.5,91,0.00,OVC,,0.00,WeatherDisplay:10.37,2013-01-12 23:38:00,
2013-01-12 18:43:00,56.7,54.1,29.97,SSE,153,4.1,6.9,91,0.00,OVC,,0.00,WeatherDisplay:10.37,2013-01-12 23:43:00,
2013-01-12 18:48:00,56.8,54.2,29.96,SSE,163,1.6,5.0,91,0.00,OVC,,0.00,WeatherDisplay:10.37,2013-01-12 23:48:00,
2013-01-12 18:53:00,56.8,54.2,29.97,South,173,7.1,10.4,91,0.00,OVC,,0.00,WeatherDisplay:10.37,2013-01-12 23:53:00,
2013-01-12 18:58:00,56.9,54.3,29.97,SSE,165,4.8,10.4,91,0.00,OVC,,0.00,WeatherDisplay:10.37,2013-01-12 23:58:00,
2013-01-12 19:03:00,57.0,54.1,29.96,SSE,152,3.5,5.8,90,0.00,OVC,,0.00,WeatherDisplay:10.37,2013-01-13 00:03:00,
2013-01-12 19:08:00,57.0,54.1,29.97,South,172,0.8,3.5,90,0.00,OVC,,0.00,WeatherDisplay:10.37,2013-01-13 00:08:00,
2013-01-12 19:13:00,57.0,54.1,29.97,South,177,2.7,4.6,90,0.00,OVC,,0.00,WeatherDisplay:10.37,2013-01-13 00:13:00,
2013-01-12 19:18:00,57.0,54.4,29.96,South,171,2.2,4.6,91,0.00,OVC,,0.00,WeatherDisplay:10.37,2013-01-13 00:18:00,
2013-01-12 19:23:00,57.0,54.4,29.96,SSE,162,3.5,5.8,91,0.00,OVC,,0.00,WeatherDisplay:10.37,2013-01-13 00:23:00,
2013-01-12 19:28:00,57.0,54.4,29.96,SSE,157,2.1,4.6,91,0.00,OVC,,0.00,WeatherDisplay:10.37,2013-01-13 00:28:00,
2013-01-12 19:33:00,56.9,54.0,29.96,SSE,157,1.0,2.3,90,0.00,OVC,,0.00,WeatherDisplay:10.37,2013-01-13 00:33:00,
2013-01-12 19:38:00,56.8,54.2,29.96,SSE,157,0.2,2.0,91,0.00,OVC,,0.00,WeatherDisplay:10.37,2013-01-13 00:38:00,
2013-01-12 19:43:00,56.7,54.1,29.96,South,175,0.1,1.1,91,0.00,OVC,,0.00,WeatherDisplay:10.37,2013-01-13 00:43:00,
2013-01-12 19:48:00,56.5,53.9,29.95,South,175,0.3,2.3,91,0.00,OVC,,0.00,WeatherDisplay:10.37,2013-01-13 00:48:00,
2013-01-12 19:53:00,56.3,54.0,29.96,South,175,0.0,0.0,92,0.00,OVC,,0.00,WeatherDisplay:10.37,2013-01-13 00:53:00,
2013-01-12 19:58:00,56.2,53.9,29.96,South,175,1.3,4.0,92,0.00,OVC,,0.00,WeatherDisplay:10.37,2013-01-13 00:58:00,
2013-01-12 20:03:00,56.0,53.7,29.96,South,175,0.0,1.0,92,0.00,OVC,,0.00,WeatherDisplay:10.37,2013-01-13 01:03:00,
2013-01-12 20:08:00,55.8,53.8,29.96,SE,134,0.6,5.0,93,0.00,OVC,,0.00,WeatherDisplay:10.37,2013-01-13 01:08:00,
2013-01-12 20:13:00,55.8,53.8,29.96,SE,142,2.2,3.5,93,0.00,OVC,,0.00,WeatherDisplay:10.37,2013-01-13 01:13:00,
2013-01-12 20:18:00,55.9,53.9,29.96,SE,142,0.0,2.3,93,0.00,OVC,,0.00,WeatherDisplay:10.37,2013-01-13 01:18:00,
2013-01-12 20:23:00,55.9,53.9,29.96,SE,144,1.2,4.6,93,0.00,OVC,,0.00,WeatherDisplay:10.37,2013-01-13 01:23:00,
2013-01-12 20:28:00,55.9,53.9,29.95,SSE,151,0.6,1.1,93,0.00,OVC,,0.00,WeatherDisplay:10.37,2013-01-13 01:28:00,
2013-01-12 20:33:00,55.8,53.8,29.95,SE,135,2.1,3.5,93,0.00,OVC,,0.00,WeatherDisplay:10.37,2013-01-13 01:33:00,
2013-01-12 20:38:00,55.7,53.7,29.95,SSE,157,1.4,3.5,93,0.00,OVC,,0.00,WeatherDisplay:10.37,2013-01-13 01:38:00,
2013-01-12 20:43:00,55.7,54.0,29.95,SSE,150,1.4,3.5,94,0.00,OVC,,0.00,WeatherDisplay:10.37,2013-01-13 01:43:00,
2013-01-12 20:48:00,55.8,54.1,29.95,SSE,147,2.1,4.6,94,0.00,OVC,,0.00,WeatherDisplay:10.37,2013-01-13 01:48:00,
2013-01-12 20:53:00,55.8,54.1,29.94,SSE,149,2.7,4.6,94,0.00,OVC,,0.00,WeatherDisplay:10.37,2013-01-13 01:53:00,
2013-01-12 20:58:00,55.9,54.2,29.94,SSE,164,2.1,5.8,94,0.00,OVC,,0.00,WeatherDisplay:10.37,2013-01-13 01:58:00,
2013-01-12 21:03:00,56.0,54.3,29.94,SSE,165,3.7,4.6,94,0.00,OVC,,0.00,WeatherDisplay:10.37,2013-01-13 02:03:00,
2013-01-12 21:08:00,56.0,54.3,29.94,SSE,163,4.1,5.8,94,0.00,OVC,,0.00,WeatherDisplay:10.37,2013-01-13 02:08:00,
2013-01-12 21:13:00,56.1,54.4,29.94,SSE,166,0.9,3.5,94,0.00,OVC,,0.00,WeatherDisplay:10.37,2013-01-13 02:13:00,
2013-01-12 21:18:00,56.2,54.2,29.94,SSE,164,0.1,2.0,93,0.00,OVC,,0.00,WeatherDisplay:10.37,2013-01-13 02:18:00,
2013-01-12 21:23:00,56.2,54.5,29.94,SSE,156,0.8,4.0,94,0.00,OVC,,0.00,WeatherDisplay:10.37,2013-01-13 02:23:00,
2013-01-12 21:28:00,56.4,54.4,29.93,SSE,161,4.4,5.8,93,0.00,OVC,,0.00,WeatherDisplay:10.37,2013-01-13 02:28:00,
2013-01-12 21:33:00,56.5,54.5,29.93,SSE,153,2.4,4.0,93,0.00,OVC,,0.00,WeatherDisplay:10.37,2013-01-13 02:33:00,
2013-01-12 21:38:00,56.4,54.4,29.92,SSE,155,4.0,5.0,93,0.00,OVC,,0.00,WeatherDisplay:10.37,2013-01-13 02:38:00,
2013-01-12 21:43:00,56.4,54.4,29.92,SE,136,0.0,1.1,93,0.00,OVC,,0.00,WeatherDisplay:10.37,2013-01-13 02:43:00,
2013-01-12 21:48:00,56.3,54.3,29.92,ESE,103,3.4,4.6,93,0.00,OVC,,0.00,WeatherDisplay:10.37,2013-01-13 02:48:00,
2013-01-12 21:53:00,56.2,54.2,29.92,SSE,167,0.7,5.0,93,0.00,OVC,,0.00,WeatherDisplay:10.37,2013-01-13 02:53:00,
2013-01-12 21:58:00,56.2,54.5,29.92,SSE,149,2.0,3.5,94,0.00,OVC,,0.00,WeatherDisplay:10.37,2013-01-13 02:58:00,
2013-01-12 22:03:00,56.2,54.5,29.91,South,171,2.1,5.8,94,0.00,OVC,,0.00,WeatherDisplay:10.37,2013-01-13 03:03:00,
2013-01-12 22:08:00,56.3,54.6,29.91,SE,141,3.3,6.9,94,0.00,OVC,,0.00,WeatherDisplay:10.37,2013-01-13 03:08:00,
2013-01-12 22:13:00,56.3,54.6,29.91,SE,127,2.0,5.8,94,0.00,OVC,,0.00,WeatherDisplay:10.37,2013-01-13 03:13:00,
2013-01-12 22:18:00,56.4,54.7,29.91,SSE,168,0.0,2.3,94,0.00,OVC,,0.00,WeatherDisplay:10.37,2013-01-13 03:18:00,
2013-01-12 22:23:00,56.5,54.8,29.91,SE,134,2.8,5.8,94,0.00,OVC,,0.00,WeatherDisplay:10.37,2013-01-13 03:23:00,
2013-01-12 22:28:00,56.6,54.9,29.91,SE,138,2.8,4.6,94,0.00,OVC,,0.00,WeatherDisplay:10.37,2013-01-13 03:28:00,
2013-01-12 22:33:00,56.6,54.6,29.91,SE,134,3.7,4.6,93,0.00,OVC,,0.00,WeatherDisplay:10.37,2013-01-13 03:33:00,
2013-01-12 22:38:00,56.8,55.1,29.91,SE,135,2.7,4.6,94,0.00,OVC,,0.00,WeatherDisplay:10.37,2013-01-13 03:38:00,
2013-01-12 22:43:00,56.9,54.9,29.91,South,180,2.8,3.5,93,0.00,OVC,,0.00,WeatherDisplay:10.37,2013-01-13 03:43:00,
2013-01-12 22:48:00,57.0,55.0,29.91,SSE,166,3.6,4.6,93,0.00,OVC,,0.00,WeatherDisplay:10.37,2013-01-13 03:48:00,
2013-01-12 22:53:00,57.1,55.1,29.91,ESE,119,2.2,4.6,93,0.00,OVC,,0.00,WeatherDisplay:10.37,2013-01-13 03:53:00,
2013-01-12 22:58:00,57.1,54.8,29.90,ESE,116,2.6,4.6,92,0.00,OVC,,0.00,WeatherDisplay:10.37,2013-01-13 03:58:00,
2013-01-12 23:03:00,57.2,54.9,29.90,ESE,102,0.2,3.5,92,0.00,OVC,,0.00,WeatherDisplay:10.37,2013-01-13 04:03:00,
2013-01-12 23:08:00,57.2,54.9,29.89,ESE,102,0.7,2.3,92,0.00,OVC,,0.00,WeatherDisplay:10.37,2013-01-13 04:08:00,
2013-01-12 23:13:00,57.1,54.8,29.89,SE,136,2.3,3.5,92,0.00,OVC,,0.00,WeatherDisplay:10.37,2013-01-13 04:13:00,
2013-01-12 23:18:00,57.1,54.8,29.89,ESE,115,1.1,3.5,92,0.00,OVC,,0.00,WeatherDisplay:10.37,2013-01-13 04:18:00,
2013-01-12 23:23:00,57.1,54.8,29.89,SE,146,3.1,4.6,92,0.00,OVC,,0.00,WeatherDisplay:10.37,2013-01-13 04:23:00,
2013-01-12 23:28:00,57.1,54.8,29.89,SSE,153,1.2,4.6,92,0.00,OVC,,0.00,WeatherDisplay:10.37,2013-01-13 04:28:00,
2013-01-12 23:33:00,57.2,54.9,29.89,SSE,153,2.5,4.6,92,0.00,OVC,,0.00,WeatherDisplay:10.37,2013-01-13 04:33:00,
2013-01-12 23:38:00,57.3,55.0,29.89,SE,126,3.3,5.8,92,0.00,OVC,,0.00,WeatherDisplay:10.37,2013-01-13 04:38:00,
2013-01-12 23:43:00,57.4,55.1,29.88,SSE,161,1.8,4.6,92,0.00,OVC,,0.00,WeatherDisplay:10.37,2013-01-13 04:43:00,
2013-01-12 23:48:00,57.4,54.8,29.88,SE,145,2.6,3.5,91,0.00,OVC,,0.00,WeatherDisplay:10.37,2013-01-13 04:48:00,
2013-01-12 23:53:00,57.4,55.1,29.87,SSE,167,4.6,6.0,92,0.00,OVC,,0.00,WeatherDisplay:10.37,2013-01-13 04:53:00,
2013-01-12 23:58:00,57.3,55.0,29.87,SSE,161,2.8,5.8,92,0.00,OVC,,0.00,WeatherDisplay:10.37,2013-01-13 04:58:00,